DECAYED
Showing default

DOT-1, 44399 (Decayed)

Orbit data source: Space-Track

DOT-1, 44399 was a payload satellite owned by SSTL (Astrium) (UK) in LEO that was launched on Fri, 05 Jul 2019 UTC via a SOYUZ-2-1B launch vehicle from the Vostochny Cosmodrome (VOSTO). Payload-class satellites include a variety of spacecraft equipped with specific instruments for various scientific and technological missions. These include communications satellites like Starlink; space stations such as the ISS; scientific satellites like the Hubble; Earth observation satellites from companies like Planet Labs, Umbra, and HawkEye 360; GPS; miniature CubeSats for education and research; and military/defense satellites.

Not visible in the next 10 days
Identifier
44399, 2019-038P
Orbit
Decayed
Country
Flag of UKUK
Related business
Manufacturer
SSTL (Astrium)
Mission
Decayed Commercial Technology
Bus & Motor
DOT, Unknown motor
Mass
18 kg wet, 18 kg dry
Launch date (UTC)
2019-07-05 (7 years ago)
Launch vehicle
SOYUZ-2-1B
Launch site
Vostochny Cosmodrome (VOSTO)
Object type
Payload
Rocket body
Debris
Shape & HBR
Box, 0.1 m
Radar Cross Section
0.060 m², Medium (>0.1 m² and < 1m²)

Expand to show TLE details & history
Last TLE update: 1 year ago

TLE from 1 year ago
0 DOT-1
1 44399U 19038P   25031.33240822  .06320608  27104-5  85705-3 0  9997
2 44399  97.6700  53.4090 0005190 251.4470 108.6263 16.35372885309836
Epoch: 2025-01-31T07:58Z
TLE epoch observation values (Epoch: 2025-01-31T07:58:40.070Z)
Latitude
0.00004°
Longitude
162.94541°
Altitude
182.466 km
Speed
7.796 km/s
True Right ascension
03h 33m 38s
True Declination
0° 00' 00"
Sunlit
Object was in daylight at epoch
Visualization orbit readout
Latitude
Unknown
Longitude
Unknown
Altitude
Unknown
Speed
Unknown
Apparent Right ascension
Unknown
Apparent Declination
Unknown
Sunlit
N/A
Visualization observer readout
Local Sidereal Time
02:09:57
Azimuth
Unknown
Elevation
Unknown
Doppler factor
Unknown
Orbital elements
Apogee altitude
178.367 km
Perigee altitude
171.565 km
Semi-major axis
6,553.103 km
Eccentricity
0.00052
Inclination
97.67°
RAAN
53.409°
Arg. of periapsis
251.447°
True anomaly
108.68265°
Mean anomaly
108.6263°
Eccentric anomaly
108.65447°
Mean motion
4.09141 °/min
Orbital period
87.99 mins
BSTAR
0.00085705
Loading maneuver chart data...
Computing Atmospheric mass density...
Loading historical data...
Loading historical data...
Loading historical data...
Loading historical data...
Loading historical data...
Loading historical data...
Loading historical data...

Documentation

Showing up to 5 results
|